| time (UTC) | temp F | wind direction | speed MPH | gust MPH | rain 1hr in | rain 24hr in | rain mn in | humidity % | barometer mb |
| 20260902212417 | 68 | 239 | 3.0 | 4.0 | 0.00 | 0.00 | 0.00 | 34 | 1021.7 |
| 20260902211516 | 67 | 135 | 3.0 | 3.0 | 0.00 | 0.00 | 0.00 | 33 | 1021.4 |
| 20260902205517 | 68 | 231 | 3.0 | 6.0 | 0.00 | 0.00 | 0.00 | 36 | 1021.5 |
| 20260902204616 | 67 | 186 | 1.0 | 4.0 | 0.00 | 0.00 | 0.00 | 36 | 1021.5 |
| 20260902203617 | 68 | 213 | 4.0 | 10.0 | 0.00 | 0.00 | 0.00 | 34 | 1021.4 |
| 20260902202633 | 69 | 220 | 5.0 | 8.0 | 0.00 | 0.00 | 0.00 | 34 | 1021.4 |
| 20260902201718 | 68 | 223 | 2.0 | 6.0 | 0.00 | 0.00 | 0.00 | 33 | 1021.4 |
| 20260902200617 | 68 | 219 | 2.0 | 8.0 | 0.00 | 0.00 | 0.00 | 34 | 1021.4 |
| 20260902195716 | 68 | 248 | 1.0 | 2.0 | 0.00 | 0.00 | 0.00 | 34 | 1021.3 |
| 20260902195617 | 68 | 134 | 2.0 | 6.0 | 0.00 | 0.00 | 0.00 | 34 | 1021.2 |
| 20260902195518 | 68 | 206 | 2.0 | 3.0 | 0.00 | 0.00 | 0.00 | 34 | 1021.2 |
| 20260902195419 | 68 | 228 | 2.0 | 4.0 | 0.00 | 0.00 | 0.00 | 34 | 1021.3 |
| 20260902193518 | 69 | 360 | 1.0 | 4.0 | 0.00 | 0.00 | 0.00 | 31 | 1021.2 |
| 20260902192617 | 69 | 204 | 1.0 | 3.0 | 0.00 | 0.00 | 0.00 | 30 | 1021.2 |
| 20260902191617 | 69 | 19 | 2.0 | 5.0 | 0.00 | 0.00 | 0.00 | 30 | 1021.1 |
| 20260902191517 | 69 | 24 | 1.0 | 4.0 | 0.00 | 0.00 | 0.00 | 31 | 1021.2 |
| 20260902191419 | 69 | 357 | 1.0 | 6.0 | 0.00 | 0.00 | 0.00 | 31 | 1021.1 |
| 20260902190417 | 68 | 127 | 1.0 | 2.0 | 0.00 | 0.00 | 0.00 | 32 | 1021.4 |
| 20260902190319 | 68 | 306 | 1.0 | 3.0 | 0.00 | 0.00 | 0.00 | 32 | 1021.5 |
| 20260902184318 | 68 | 122 | 3.0 | 4.0 | 0.00 | 0.00 | 0.00 | 30 | 1021.5 |
| 20260902183316 | 68 | 90 | 0.0 | 2.0 | 0.00 | 0.00 | 0.00 | 32 | 1021.5 |
| 20260902182317 | 66 | 351 | 3.0 | 4.0 | 0.00 | 0.00 | 0.00 | 32 | 1021.5 |
| 20260902180419 | 66 | 132 | 3.0 | 7.0 | 0.00 | 0.00 | 0.00 | 32 | 1021.5 |
| 20260902173416 | 65 | 100 | 0.0 | 2.0 | 0.00 | 0.00 | 0.00 | 32 | 1021.7 |
| 20260902165616 | 63 | 135 | 2.0 | 3.0 | 0.00 | 0.00 | 0.00 | 33 | 1021.7 |
| 20260902164617 | 63 | 28 | 0.0 | 2.0 | 0.00 | 0.00 | 0.00 | 36 | 1021.7 |
| 20260902163617 | 62 | 63 | 0.0 | 1.0 | 0.00 | 0.00 | 0.00 | 38 | 1021.7 |
| 20260902162617 | 62 | 247 | 0.0 | 0.0 | 0.00 | 0.00 | 0.00 | 43 | 1021.7 |
| 20260902162516 | 62 | 247 | 0.0 | 0.0 | 0.00 | 0.00 | 0.00 | 44 | 1021.7 |
| 20260902161517 | 60 | 247 | 0.0 | 0.0 | 0.00 | 0.00 | 0.00 | 46 | 1021.6 |
| 20260902161415 | 60 | 247 | 0.0 | 0.0 | 0.00 | 0.00 | 0.00 | 47 | 1021.6 |
| 20260902160417 | 57 | 247 | 0.0 | 0.0 | 0.00 | 0.00 | 0.00 | 50 | 1021.7 |
| 20260902154516 | 52 | 247 | 0.0 | 0.0 | 0.00 | 0.00 | 0.00 | 58 | 1021.7 |
| 20260902153516 | 50 | 247 | 0.0 | 0.0 | 0.00 | 0.00 | 0.00 | 61 | 1021.4 |
| 20260902152616 | 48 | 247 | 0.0 | 0.0 | 0.00 | 0.00 | 0.00 | 65 | 1021.4 |
| 20260902151617 | 45 | 247 | 0.0 | 0.0 | 0.00 | 0.00 | 0.00 | 69 | 1021.2 |
| 20260902150617 | 43 | 247 | 0.0 | 0.0 | 0.00 | 0.00 | 0.00 | 73 | 1021.0 |
| 20260902145616 | 40 | 247 | 0.0 | 0.0 | 0.00 | 0.00 | 0.00 | 79 | 1020.9 |
| 20260902144617 | 36 | 247 | 0.0 | 0.0 | 0.00 | 0.00 | 0.00 | 86 | 1020.6 |
| 20260902143617 | 34 | 247 | 0.0 | 0.0 | 0.00 | 0.00 | 0.00 | 89 | 1020.4 |
| 20260902142615 | 33 | 247 | 0.0 | 0.0 | 0.00 | 0.00 | 0.00 | 88 | 1020.4 |
| 20260902140616 | 32 | 247 | 0.0 | 0.0 | 0.00 | 0.00 | 0.00 | 89 | 1020.3 |
| 20260902135617 | 32 | 247 | 0.0 | 0.0 | 0.00 | 0.00 | 0.00 | 88 | 1020.4 |
| 20260902134716 | 32 | 247 | 0.0 | 0.0 | 0.00 | 0.00 | 0.00 | 89 | 1020.4 |
| 20260902133815 | 32 | 247 | 0.0 | 0.0 | 0.00 | 0.00 | 0.00 | 88 | 1020.3 |
| 20260902131816 | 32 | 247 | 0.0 | 0.0 | 0.00 | 0.00 | 0.00 | 87 | 1020.4 |
| 20260902131717 | 32 | 247 | 0.0 | 0.0 | 0.00 | 0.00 | 0.00 | 87 | 1020.4 |
| 20260902130718 | 32 | 247 | 0.0 | 0.0 | 0.00 | 0.00 | 0.00 | 87 | 1020.4 |
| 20260902124717 | 32 | 247 | 0.0 | 0.0 | 0.00 | 0.00 | 0.00 | 87 | 1020.4 |
| 20260902123733 | 32 | 247 | 0.0 | 0.0 | 0.00 | 0.00 | 0.00 | 85 | 1020.3 |
| 20260902122816 | 33 | 247 | 0.0 | 0.0 | 0.00 | 0.00 | 0.00 | 85 | 1020.4 |
| 20260902121816 | 33 | 247 | 0.0 | 0.0 | 0.00 | 0.00 | 0.00 | 86 | 1020.3 |
| 20260902121716 | 33 | 247 | 0.0 | 0.0 | 0.00 | 0.00 | 0.00 | 85 | 1020.3 |
| 20260902120815 | 33 | 247 | 0.0 | 0.0 | 0.00 | 0.00 | 0.00 | 85 | 1020.3 |
| 20260902115915 | 33 | 247 | 0.0 | 0.0 | 0.00 | 0.00 | 0.00 | 86 | 1020.3 |
| 20260902113918 | 33 | 247 | 0.0 | 0.0 | 0.00 | 0.00 | 0.00 | 87 | 1020.2 |
| 20260902112917 | 33 | 247 | 0.0 | 0.0 | 0.00 | 0.00 | 0.00 | 87 | 1020.1 |
| 20260902111918 | 33 | 247 | 0.0 | 0.0 | 0.00 | 0.00 | 0.00 | 88 | 1020.2 |
| 20260902110915 | 33 | 247 | 0.0 | 0.0 | 0.00 | 0.00 | 0.00 | 87 | 1020.2 |
| 20260902105916 | 34 | 247 | 0.0 | 0.0 | 0.00 | 0.00 | 0.00 | 88 | 1020.2 |
| 20260902104917 | 34 | 247 | 0.0 | 0.0 | 0.00 | 0.00 | 0.00 | 89 | 1020.2 |
| 20260902102015 | 35 | 247 | 0.0 | 0.0 | 0.00 | 0.00 | 0.00 | 91 | 1020.3 |
| 20260902101017 | 35 | 247 | 0.0 | 0.0 | 0.00 | 0.00 | 0.00 | 90 | 1020.3 |
| 20260902100918 | 35 | 247 | 0.0 | 0.0 | 0.00 | 0.00 | 0.00 | 91 | 1020.3 |
| 20260902093114 | 36 | 247 | 0.0 | 0.0 | 0.00 | 0.00 | 0.00 | 88 | 1020.6 |
| 20260902092215 | 36 | 247 | 0.0 | 0.0 | 0.00 | 0.00 | 0.00 | 89 | 1020.6 |
| 20260902090217 | 37 | 247 | 0.0 | 0.0 | 0.00 | 0.00 | 0.00 | 88 | 1020.6 |
| 20260902085314 | 37 | 247 | 0.0 | 0.0 | 0.00 | 0.00 | 0.00 | 87 | 1020.7 |
| 20260902084315 | 37 | 247 | 0.0 | 0.0 | 0.00 | 0.00 | 0.00 | 86 | 1020.6 |
| 20260902083214 | 37 | 247 | 0.0 | 0.0 | 0.00 | 0.00 | 0.00 | 86 | 1020.8 |
| 20260902082217 | 38 | 247 | 0.0 | 0.0 | 0.00 | 0.00 | 0.00 | 85 | 1020.9 |
| 20260902081215 | 38 | 247 | 0.0 | 0.0 | 0.00 | 0.00 | 0.00 | 85 | 1021.0 |
| 20260902080315 | 38 | 247 | 0.0 | 0.0 | 0.00 | 0.00 | 0.00 | 85 | 1021.1 |
| 20260902080215 | 38 | 247 | 0.0 | 0.0 | 0.00 | 0.00 | 0.00 | 85 | 1021.0 |
| 20260902075215 | 38 | 247 | 0.0 | 0.0 | 0.00 | 0.00 | 0.00 | 85 | 1020.8 |
| 20260902075117 | 38 | 247 | 0.0 | 0.0 | 0.00 | 0.00 | 0.00 | 85 | 1020.8 |
| 20260902075015 | 38 | 247 | 0.0 | 0.0 | 0.00 | 0.00 | 0.00 | 84 | 1020.9 |
| 20260902074016 | 38 | 247 | 0.0 | 0.0 | 0.00 | 0.00 | 0.00 | 85 | 1020.8 |
| 20260902072118 | 39 | 247 | 0.0 | 0.0 | 0.00 | 0.00 | 0.00 | 84 | 1020.8 |
| 20260902071116 | 39 | 247 | 0.0 | 0.0 | 0.00 | 0.00 | 0.00 | 83 | 1020.6 |
| 20260902070115 | 39 | 247 | 0.0 | 0.0 | 0.00 | 0.00 | 0.00 | 83 | 1020.6 |
| 20260902065121 | 40 | 247 | 0.0 | 0.0 | 0.00 | 0.00 | 0.00 | 80 | 1020.6 |
| 20260902063140 | 40 | 247 | 0.0 | 0.0 | 0.00 | 0.00 | 0.00 | 79 | 1020.6 |
| 20260902062141 | 41 | 247 | 0.0 | 0.0 | 0.00 | 0.00 | 0.00 | 79 | 1020.6 |
| 20260902061239 | 41 | 247 | 0.0 | 0.0 | 0.00 | 0.00 | 0.00 | 78 | 1020.5 |
| 20260902060241 | 41 | 247 | 0.0 | 0.0 | 0.00 | 0.00 | 0.00 | 78 | 1020.6 |
| 20260902055242 | 41 | 247 | 0.0 | 0.0 | 0.00 | 0.00 | 0.00 | 77 | 1020.6 |
| 20260902054142 | 42 | 247 | 0.0 | 0.0 | 0.00 | 0.00 | 0.00 | 77 | 1020.6 |
| 20260902052140 | 42 | 247 | 0.0 | 0.0 | 0.00 | 0.00 | 0.00 | 74 | 1020.9 |
| 20260902051141 | 43 | 247 | 0.0 | 0.0 | 0.00 | 0.00 | 0.00 | 73 | 1021.0 |
| 20260902050140 | 43 | 247 | 0.0 | 0.0 | 0.00 | 0.00 | 0.00 | 72 | 1021.0 |
| 20260902045140 | 44 | 247 | 0.0 | 0.0 | 0.00 | 0.00 | 0.00 | 71 | 1020.8 |
| 20260902045041 | 44 | 247 | 0.0 | 0.0 | 0.00 | 0.00 | 0.00 | 72 | 1020.8 |
| 20260902044040 | 44 | 247 | 0.0 | 0.0 | 0.00 | 0.00 | 0.00 | 70 | 1020.8 |
| 20260902043941 | 44 | 247 | 0.0 | 0.0 | 0.00 | 0.00 | 0.00 | 70 | 1020.8 |
| 20260902043039 | 45 | 247 | 0.0 | 0.0 | 0.00 | 0.00 | 0.00 | 70 | 1020.7 |
| 20260902041141 | 46 | 247 | 0.0 | 0.0 | 0.00 | 0.00 | 0.00 | 66 | 1020.6 |
| 20260902040140 | 47 | 247 | 0.0 | 0.0 | 0.00 | 0.00 | 0.00 | 65 | 1020.6 |
| 20260902035142 | 48 | 247 | 0.0 | 0.0 | 0.00 | 0.00 | 0.00 | 65 | 1020.6 |
| 20260902035040 | 48 | 247 | 0.0 | 0.0 | 0.00 | 0.00 | 0.00 | 64 | 1020.4 |
| 20260902034041 | 48 | 247 | 0.0 | 0.0 | 0.00 | 0.00 | 0.00 | 64 | 1020.4 |
| 20260902033140 | 49 | 247 | 0.0 | 0.0 | 0.00 | 0.00 | 0.00 | 64 | 1020.2 |
| 20260902033042 | 49 | 247 | 0.0 | 0.0 | 0.00 | 0.00 | 0.00 | 63 | 1020.3 |
| 20260902032140 | 50 | 247 | 0.0 | 0.0 | 0.00 | 0.00 | 0.00 | 64 | 1020.1 |
| 20260902031239 | 50 | 247 | 0.0 | 0.0 | 0.00 | 0.00 | 0.00 | 63 | 1020.3 |
| 20260902030240 | 51 | 247 | 0.0 | 1.0 | 0.00 | 0.00 | 0.00 | 62 | 1020.0 |
| 20260902030142 | 51 | 247 | 0.0 | 0.0 | 0.00 | 0.00 | 0.00 | 62 | 1020.0 |
| 20260902024140 | 53 | 247 | 0.0 | 0.0 | 0.00 | 0.00 | 0.00 | 59 | 1020.1 |
| 20260902023141 | 54 | 247 | 0.0 | 0.0 | 0.00 | 0.00 | 0.00 | 57 | 1019.9 |
| 20260902022239 | 55 | 247 | 0.0 | 0.0 | 0.00 | 0.00 | 0.00 | 56 | 1019.9 |
| 20260902021241 | 55 | 247 | 0.0 | 0.0 | 0.00 | 0.00 | 0.00 | 55 | 1019.9 |
| 20260902020241 | 56 | 247 | 0.0 | 0.0 | 0.00 | 0.00 | 0.00 | 53 | 1019.9 |
| 20260902015340 | 57 | 247 | 0.0 | 0.0 | 0.00 | 0.00 | 0.00 | 53 | 1019.9 |
| 20260902014340 | 58 | 247 | 0.0 | 0.0 | 0.00 | 0.00 | 0.00 | 51 | 1019.9 |
| 20260902013342 | 60 | 247 | 0.0 | 0.0 | 0.00 | 0.00 | 0.00 | 48 | 1019.7 |
| 20260902012341 | 61 | 247 | 0.0 | 0.0 | 0.00 | 0.00 | 0.00 | 45 | 1019.8 |
| 20260902010440 | 67 | 247 | 1.0 | 2.0 | 0.00 | 0.00 | 0.00 | 37 | 1019.6 |
| 20260902010338 | 68 | 247 | 1.0 | 2.0 | 0.00 | 0.00 | 0.00 | 36 | 1019.6 |
| 20260902010242 | 68 | 247 | 0.0 | 1.0 | 0.00 | 0.00 | 0.00 | 36 | 1019.6 |
| 20260902005340 | 68 | 180 | 0.0 | 1.0 | 0.00 | 0.00 | 0.00 | 35 | 1019.5 |
| 20260902003341 | 68 | 269 | 0.0 | 0.0 | 0.00 | 0.00 | 0.00 | 37 | 1019.5 |
| 20260902002341 | 68 | 48 | 1.0 | 7.0 | 0.00 | 0.00 | 0.00 | 35 | 1019.5 |
| 20260902001341 | 70 | 205 | 3.0 | 7.0 | 0.00 | 0.00 | 0.00 | 34 | 1019.5 |
| 20260901235341 | 70 | 145 | 1.0 | 3.0 | 0.00 | 0.00 | 0.00 | 34 | 1019.4 |
| 20260901234340 | 71 | 239 | 3.0 | 7.0 | 0.00 | 0.00 | 0.00 | 30 | 1019.5 |
| 20260901232341 | 73 | 162 | 1.0 | 5.0 | 0.00 | 0.00 | 0.00 | 25 | 1019.4 |
| 20260901232242 | 73 | 210 | 1.0 | 4.0 | 0.00 | 0.00 | 0.00 | 25 | 1019.5 |
| 20260901231242 | 74 | 180 | 0.0 | 1.0 | 0.00 | 0.00 | 0.00 | 24 | 1019.6 |
| 20260901231138 | 74 | 180 | 0.0 | 1.0 | 0.00 | 0.00 | 0.00 | 24 | 1019.5 |
| 20260901230138 | 73 | 225 | 0.0 | 3.0 | 0.00 | 0.00 | 0.00 | 24 | 1019.6 |
| 20260901225140 | 72 | 225 | 0.0 | 2.0 | 0.00 | 0.00 | 0.00 | 22 | 1019.8 |
| 20260901224142 | 72 | 239 | 2.0 | 4.0 | 0.00 | 0.00 | 0.00 | 25 | 1019.7 |
| 20260901223141 | 72 | 261 | 1.0 | 3.0 | 0.00 | 0.00 | 0.00 | 24 | 1019.8 |
| 20260901221141 | 72 | 210 | 3.0 | 5.0 | 0.00 | 0.00 | 0.00 | 24 | 1020.0 |
| 20260901220240 | 72 | 116 | 3.0 | 4.0 | 0.00 | 0.00 | 0.00 | 24 | 1019.9 |
| 20260901215240 | 72 | 280 | 1.0 | 3.0 | 0.00 | 0.00 | 0.00 | 26 | 1019.9 |
| 20260901214340 | 72 | 180 | 0.0 | 1.0 | 0.00 | 0.00 | 0.00 | 25 | 1020.1 |
| 20260901213340 | 71 | 229 | 4.0 | 7.0 | 0.00 | 0.00 | 0.00 | 26 | 1020.1 |
| 20260901213241 | 71 | 89 | 3.0 | 6.0 | 0.00 | 0.00 | 0.00 | 25 | 1020.1 |
| 20260901213140 | 71 | 198 | 2.0 | 7.0 | 0.00 | 0.00 | 0.00 | 26 | 1020.3 |